Volver al catálogo

QIANFAN-234

ActivoComunicacionesPO
NORAD 69863·PAYLOAD·🇨🇳 China

Lanzado Jul 5, 2026 desde Wenchang Space Launch Site

Loading…

Próximos Pases (próximas 24 horas)

TLE

ActualizadoSource: Space-Track

Época: Sep 14, 2026, 21:23 UTC

1 69863U 26155R   26257.89103325 -.01887824  00000-0 -26744+1 0  9997
2 69863  89.0074  54.2049 0034011  16.2504 343.9735 13.60879072 10012

Sigue QIANFAN-234 en tiempo real con AllMySat

Download on the App Store